User: anonymous   Login
Location: Mactaquac Provincial Park
(45.9573°N, 66.8897°W)
Time: 23:33:38
(UTC-03:00)
Language:

Cosmos 1766 - Orbit

View from above orbital plane
View from above orbital plane
View from above satellite
View from above satellite

Ground track
Ground track

The orbit data is extracted from the following two-line orbital elements,

1 16881U 86055A   15241.72247042 +.00002366 +00000-0 +14936-3 0  9992
2 16881 082.5072 306.2102 0017444 187.0282 173.0705 15.08509578561094
Epoch (UTC): 29 August 2015 17:20:21
Eccentricity: 0.0017444
inclination: 82.5072°
perigee height: 528 km
apogee height: 553 km
right ascension of ascending node: 306.2102°
argument of perigee: 187.0282°
revolutions per day: 15.08509578
mean anomaly at epoch: 173.0705°
orbit number at epoch: 56109

The dashed part of the orbit path shows where the satellite is in the earth's shadow,  

DLR